Time,TemperatureF,DewpointF,PressureIn,WindDirection,WindDirectionDegrees,WindSpeedMPH,WindSpeedGustMPH,Humidity,HourlyPrecipIn,Conditions,Clouds,dailyrainin,SoftwareType,DateUTC
2013-12-04 00:09:00,38.2,37.0,29.97,South,171,0.0,-999.0,95,-99.99,,,0.00,weatherlink.com 1.10,2013-12-04 05:09:00,
2013-12-04 00:24:00,38.5,38.0,29.96,SSW,205,0.0,-999.0,96,-99.99,,,0.00,weatherlink.com 1.10,2013-12-04 05:24:00,
2013-12-04 00:39:00,38.3,37.0,29.96,SSW,202,0.0,-999.0,96,-99.99,,,0.00,weatherlink.com 1.10,2013-12-04 05:39:00,
2013-12-04 00:54:00,38.3,37.0,29.96,SSW,200,0.0,-999.0,96,-99.99,,,0.00,weatherlink.com 1.10,2013-12-04 05:54:00,
2013-12-04 01:09:00,38.7,38.0,29.97,SW,223,6.0,-999.0,97,-99.99,,,0.00,weatherlink.com 1.10,2013-12-04 06:09:00,
2013-12-04 01:24:00,39.0,38.0,29.98,SSW,205,9.0,-999.0,97,-99.99,,,0.00,weatherlink.com 1.10,2013-12-04 06:24:00,
2013-12-04 01:39:00,39.2,39.0,29.98,SSW,213,6.0,-999.0,97,-99.99,,,0.00,weatherlink.com 1.10,2013-12-04 06:39:00,
2013-12-04 01:54:00,39.3,39.0,29.99,SSW,200,4.0,-999.0,98,-99.99,,,0.00,weatherlink.com 1.10,2013-12-04 06:54:00,
2013-12-04 02:09:00,39.5,39.0,30.00,SSW,202,7.0,-999.0,98,-99.99,,,0.00,weatherlink.com 1.10,2013-12-04 07:09:00,
2013-12-04 02:24:00,39.9,39.0,29.99,SSW,201,1.0,-999.0,98,-99.99,,,0.00,weatherlink.com 1.10,2013-12-04 07:24:00,
2013-12-04 02:39:00,40.1,40.0,29.99,SW,234,4.0,-999.0,98,-99.99,,,0.01,weatherlink.com 1.10,2013-12-04 07:39:00,
2013-12-04 02:55:00,40.4,40.0,29.99,SSW,199,5.0,-999.0,98,-99.99,,,0.01,weatherlink.com 1.10,2013-12-04 07:55:00,
2013-12-04 03:10:00,40.3,40.0,30.00,SSW,201,5.0,-999.0,98,-99.99,,,0.01,weatherlink.com 1.10,2013-12-04 08:10:00,
2013-12-04 03:25:00,40.3,40.0,29.99,SSW,205,3.0,-999.0,98,-99.99,,,0.02,weatherlink.com 1.10,2013-12-04 08:25:00,
2013-12-04 03:40:00,40.5,40.0,29.99,SSW,201,1.0,-999.0,98,-99.99,,,0.02,weatherlink.com 1.10,2013-12-04 08:40:00,
2013-12-04 03:55:00,40.5,40.0,29.98,SSW,202,3.0,-999.0,98,-99.99,,,0.02,weatherlink.com 1.10,2013-12-04 08:55:00,
2013-12-04 04:10:00,40.8,40.0,29.97,SSW,202,0.0,-999.0,98,-99.99,,,0.02,weatherlink.com 1.10,2013-12-04 09:10:00,
2013-12-04 04:25:00,40.8,40.0,29.96,SSW,202,3.0,-999.0,98,-99.99,,,0.02,weatherlink.com 1.10,2013-12-04 09:25:00,
2013-12-04 04:39:00,40.8,40.0,29.96,SSW,203,5.0,-999.0,98,-99.99,,,0.02,weatherlink.com 1.10,2013-12-04 09:39:00,
2013-12-04 04:54:00,40.8,40.0,29.97,SSW,205,4.0,-999.0,98,-99.99,,,0.02,weatherlink.com 1.10,2013-12-04 09:54:00,
2013-12-04 05:09:00,40.8,40.0,29.97,SSW,205,4.0,-999.0,98,-99.99,,,0.02,weatherlink.com 1.10,2013-12-04 10:09:00,
2013-12-04 05:24:00,40.9,40.0,29.97,SSW,207,4.0,-999.0,98,-99.99,,,0.02,weatherlink.com 1.10,2013-12-04 10:24:00,
2013-12-04 05:39:00,40.8,40.0,29.98,SSW,207,3.0,-999.0,98,-99.99,,,0.02,weatherlink.com 1.10,2013-12-04 10:39:00,
2013-12-04 05:54:00,40.6,40.0,29.98,SSW,207,2.0,-999.0,98,-99.99,,,0.02,weatherlink.com 1.10,2013-12-04 10:54:00,
2013-12-04 06:09:00,40.6,40.0,29.99,SSW,207,4.0,-999.0,98,-99.99,,,0.02,weatherlink.com 1.10,2013-12-04 11:09:00,
2013-12-04 06:24:00,40.5,40.0,30.00,SSW,209,0.0,-999.0,98,-99.99,,,0.02,weatherlink.com 1.10,2013-12-04 11:24:00,
2013-12-04 06:39:00,40.6,40.0,30.01,SSW,209,0.0,-999.0,98,-99.99,,,0.02,weatherlink.com 1.10,2013-12-04 11:39:00,
2013-12-04 06:54:00,40.5,40.0,30.01,SSW,209,3.0,-999.0,98,-99.99,,,0.02,weatherlink.com 1.10,2013-12-04 11:54:00,
2013-12-04 07:09:00,40.4,40.0,30.02,SSW,209,0.0,-999.0,98,-99.99,,,0.02,weatherlink.com 1.10,2013-12-04 12:09:00,
2013-12-04 07:24:00,40.4,40.0,30.02,SSW,209,0.0,-999.0,98,-99.99,,,0.02,weatherlink.com 1.10,2013-12-04 12:24:00,
2013-12-04 07:39:00,40.5,40.0,30.02,SSW,209,0.0,-999.0,98,-99.99,,,0.02,weatherlink.com 1.10,2013-12-04 12:39:00,
2013-12-04 07:54:00,40.8,40.0,30.02,SSW,209,0.0,-999.0,98,-99.99,,,0.02,weatherlink.com 1.10,2013-12-04 12:54:00,
2013-12-04 08:09:00,41.9,42.0,30.02,SSW,209,0.0,-999.0,99,-99.99,,,0.02,weatherlink.com 1.10,2013-12-04 13:09:00,
2013-12-04 08:24:00,42.2,42.0,30.02,SSW,209,0.0,-999.0,99,-99.99,,,0.02,weatherlink.com 1.10,2013-12-04 13:24:00,
2013-12-04 08:39:00,42.7,43.0,30.02,SSW,209,0.0,-999.0,99,-99.99,,,0.02,weatherlink.com 1.10,2013-12-04 13:39:00,
2013-12-04 08:54:00,43.1,43.0,30.02,SSW,211,0.0,-999.0,99,-99.99,,,0.02,weatherlink.com 1.10,2013-12-04 13:54:00,
2013-12-04 09:09:00,43.9,44.0,30.02,SSW,211,0.0,-999.0,99,-99.99,,,0.02,weatherlink.com 1.10,2013-12-04 14:09:00,
2013-12-04 09:24:00,43.9,44.0,30.03,SSW,211,2.0,-999.0,99,-99.99,,,0.02,weatherlink.com 1.10,2013-12-04 14:24:00,
2013-12-04 09:39:00,44.2,44.0,30.03,SSW,213,7.0,-999.0,99,-99.99,,,0.02,weatherlink.com 1.10,2013-12-04 14:39:00,
2013-12-04 09:54:00,45.2,45.0,30.03,SSW,211,9.0,-999.0,98,-99.99,,,0.02,weatherlink.com 1.10,2013-12-04 14:54:00,
2013-12-04 10:09:00,45.8,44.0,30.04,SSW,204,7.0,-999.0,94,-99.99,,,0.02,weatherlink.com 1.10,2013-12-04 15:09:00,
2013-12-04 10:24:00,46.5,44.0,30.04,SSW,202,5.0,-999.0,91,-99.99,,,0.02,weatherlink.com 1.10,2013-12-04 15:24:00,
2013-12-04 10:39:00,47.0,44.0,30.04,SSW,197,10.0,-999.0,90,-99.99,,,0.02,weatherlink.com 1.10,2013-12-04 15:39:00,
2013-12-04 10:54:00,47.4,44.0,30.04,SSW,209,2.0,-999.0,87,-99.99,,,0.02,weatherlink.com 1.10,2013-12-04 15:54:00,
2013-12-04 11:24:00,47.4,44.0,30.02,SSW,211,6.0,-999.0,88,-99.99,,,0.02,weatherlink.com 1.10,2013-12-04 16:24:00,
2013-12-04 11:39:00,47.6,44.0,30.02,SSW,210,3.0,-999.0,88,-99.99,,,0.02,weatherlink.com 1.10,2013-12-04 16:39:00,
2013-12-04 11:55:00,47.7,44.0,30.02,SSW,206,0.0,-999.0,88,-99.99,,,0.02,weatherlink.com 1.10,2013-12-04 16:55:00,
2013-12-04 12:10:00,47.5,44.0,30.01,SW,215,7.0,-999.0,88,-99.99,,,0.02,weatherlink.com 1.10,2013-12-04 17:10:00,
2013-12-04 12:25:00,47.4,44.0,30.00,SSW,213,0.0,-999.0,88,-99.99,,,0.02,weatherlink.com 1.10,2013-12-04 17:25:00,
2013-12-04 12:39:00,47.5,45.0,30.00,SSW,213,0.0,-999.0,89,-99.99,,,0.02,weatherlink.com 1.10,2013-12-04 17:39:00,
2013-12-04 12:54:00,48.6,45.0,29.99,SSW,204,3.0,-999.0,87,-99.99,,,0.03,weatherlink.com 1.10,2013-12-04 17:54:00,
2013-12-04 13:09:00,48.6,45.0,29.99,SSE,168,2.0,-999.0,86,-99.99,,,0.03,weatherlink.com 1.10,2013-12-04 18:09:00,
2013-12-04 13:24:00,48.1,44.0,29.98,SSW,201,5.0,-999.0,87,-99.99,,,0.03,weatherlink.com 1.10,2013-12-04 18:24:00,
2013-12-04 13:39:00,48.4,45.0,29.97,SSW,201,0.0,-999.0,87,-99.99,,,0.03,weatherlink.com 1.10,2013-12-04 18:39:00,
2013-12-04 13:54:00,49.3,45.0,29.97,SSW,201,2.0,-999.0,86,-99.99,,,0.03,weatherlink.com 1.10,2013-12-04 18:54:00,
2013-12-04 14:09:00,50.4,46.0,29.96,South,186,5.0,-999.0,84,-99.99,,,0.03,weatherlink.com 1.10,2013-12-04 19:09:00,
2013-12-04 14:24:00,51.0,46.0,29.96,East,90,5.0,-999.0,84,-99.99,,,0.03,weatherlink.com 1.10,2013-12-04 19:24:00,
2013-12-04 14:39:00,50.8,46.0,29.96,SSE,159,7.0,-999.0,83,-99.99,,,0.03,weatherlink.com 1.10,2013-12-04 19:39:00,
2013-12-04 14:54:00,50.3,46.0,29.96,SSE,158,2.0,-999.0,84,-99.99,,,0.03,weatherlink.com 1.10,2013-12-04 19:54:00,
2013-12-04 15:09:00,49.8,46.0,29.96,SW,221,7.0,-999.0,85,-99.99,,,0.03,weatherlink.com 1.10,2013-12-04 20:09:00,
2013-12-04 15:24:00,50.5,46.0,29.96,SE,137,6.0,-999.0,84,-99.99,,,0.03,weatherlink.com 1.10,2013-12-04 20:24:00,
2013-12-04 15:39:00,50.9,46.0,29.97,South,187,0.0,-999.0,83,-99.99,,,0.03,weatherlink.com 1.10,2013-12-04 20:39:00,
2013-12-04 15:54:00,49.0,45.0,29.97,South,174,4.0,-999.0,86,-99.99,,,0.03,weatherlink.com 1.10,2013-12-04 20:54:00,
2013-12-04 16:09:00,48.2,45.0,29.98,South,188,6.0,-999.0,88,-99.99,,,0.03,weatherlink.com 1.10,2013-12-04 21:09:00,
2013-12-04 16:24:00,47.8,45.0,29.97,South,176,6.0,-999.0,89,-99.99,,,0.03,weatherlink.com 1.10,2013-12-04 21:24:00,
2013-12-04 16:39:00,47.5,45.0,29.98,South,186,2.0,-999.0,89,-99.99,,,0.03,weatherlink.com 1.10,2013-12-04 21:39:00,
2013-12-04 16:54:00,46.9,44.0,29.98,South,179,0.0,-999.0,90,-99.99,,,0.03,weatherlink.com 1.10,2013-12-04 21:54:00,
2013-12-04 17:09:00,46.3,44.0,29.98,South,172,0.0,-999.0,91,-99.99,,,0.03,weatherlink.com 1.10,2013-12-04 22:09:00,
2013-12-04 17:24:00,45.8,44.0,29.98,SSE,166,0.0,-999.0,92,-99.99,,,0.03,weatherlink.com 1.10,2013-12-04 22:24:00,
2013-12-04 17:39:00,45.3,43.0,29.98,SSE,160,0.0,-999.0,93,-99.99,,,0.03,weatherlink.com 1.10,2013-12-04 22:39:00,
2013-12-04 17:54:00,45.0,43.0,29.98,SSE,163,0.0,-999.0,93,-99.99,,,0.03,weatherlink.com 1.10,2013-12-04 22:54:00,
2013-12-04 18:09:00,44.6,43.0,29.98,SSE,147,0.0,-999.0,94,-99.99,,,0.03,weatherlink.com 1.10,2013-12-04 23:09:00,
2013-12-04 18:24:00,44.2,43.0,29.98,SE,146,2.0,-999.0,95,-99.99,,,0.03,weatherlink.com 1.10,2013-12-04 23:24:00,
2013-12-04 18:39:00,44.2,43.0,29.99,SE,144,1.0,-999.0,95,-99.99,,,0.03,weatherlink.com 1.10,2013-12-04 23:39:00,
2013-12-04 18:55:00,44.6,44.0,29.99,SSE,151,6.0,-999.0,96,-99.99,,,0.03,weatherlink.com 1.10,2013-12-04 23:55:00,
2013-12-04 19:10:00,44.8,44.0,29.98,SSW,203,5.0,-999.0,96,-99.99,,,0.03,weatherlink.com 1.10,2013-12-05 00:10:00,
2013-12-04 19:25:00,45.2,44.0,29.99,South,185,5.0,-999.0,95,-99.99,,,0.03,weatherlink.com 1.10,2013-12-05 00:25:00,
2013-12-04 19:40:00,45.1,44.0,29.99,SSW,192,8.0,-999.0,95,-99.99,,,0.03,weatherlink.com 1.10,2013-12-05 00:40:00,
2013-12-04 19:54:00,44.9,44.0,29.99,South,173,5.0,-999.0,95,-99.99,,,0.03,weatherlink.com 1.10,2013-12-05 00:54:00,
2013-12-04 20:10:00,44.7,44.0,29.99,SE,137,6.0,-999.0,96,-99.99,,,0.03,weatherlink.com 1.10,2013-12-05 01:10:00,
2013-12-04 20:25:00,44.6,44.0,30.00,SSW,194,5.0,-999.0,97,-99.99,,,0.03,weatherlink.com 1.10,2013-12-05 01:25:00,
2013-12-04 20:40:00,44.6,44.0,29.99,South,179,5.0,-999.0,97,-99.99,,,0.03,weatherlink.com 1.10,2013-12-05 01:40:00,
2013-12-04 20:54:00,44.7,44.0,29.99,South,187,6.0,-999.0,97,-99.99,,,0.03,weatherlink.com 1.10,2013-12-05 01:54:00,
2013-12-04 21:09:00,44.7,44.0,30.00,South,185,9.0,-999.0,97,-99.99,,,0.03,weatherlink.com 1.10,2013-12-05 02:09:00,
2013-12-04 21:24:00,44.7,44.0,29.99,SSW,206,6.0,-999.0,98,-99.99,,,0.03,weatherlink.com 1.10,2013-12-05 02:24:00,
2013-12-04 21:39:00,44.5,44.0,30.00,SE,137,2.0,-999.0,98,-99.99,,,0.03,weatherlink.com 1.10,2013-12-05 02:39:00,
2013-12-04 21:54:00,44.8,44.0,30.00,SSW,198,6.0,-999.0,98,-99.99,,,0.03,weatherlink.com 1.10,2013-12-05 02:54:00,
2013-12-04 22:09:00,44.9,44.0,30.00,SW,217,6.0,-999.0,98,-99.99,,,0.03,weatherlink.com 1.10,2013-12-05 03:09:00,
2013-12-04 22:24:00,44.7,44.0,30.00,South,188,5.0,-999.0,98,-99.99,,,0.03,weatherlink.com 1.10,2013-12-05 03:24:00,
2013-12-04 22:39:00,44.7,44.0,30.01,SSW,202,0.0,-999.0,98,-99.99,,,0.03,weatherlink.com 1.10,2013-12-05 03:39:00,
2013-12-04 22:54:00,44.6,44.0,30.02,SSW,196,8.0,-999.0,98,-99.99,,,0.03,weatherlink.com 1.10,2013-12-05 03:54:00,
2013-12-04 23:09:00,44.6,44.0,30.02,SSW,204,10.0,-999.0,98,-99.99,,,0.03,weatherlink.com 1.10,2013-12-05 04:09:00,
2013-12-04 23:24:00,44.7,44.0,30.02,SSW,198,15.0,-999.0,98,-99.99,,,0.03,weatherlink.com 1.10,2013-12-05 04:24:00,
2013-12-04 23:39:00,45.0,45.0,30.02,SSW,200,19.0,-999.0,98,-99.99,,,0.03,weatherlink.com 1.10,2013-12-05 04:39:00,
2013-12-04 23:54:00,45.2,45.0,30.02,SSW,204,6.0,-999.0,98,-99.99,,,0.03,weatherlink.com 1.10,2013-12-05 04:54:00,